Location: Unspecified
(0.0000°N, 0.0000°E)
Time: 21:27:10
(UTC+00:00)

deb Kosmos-1275 - Pass Details

Date: 15 March 2026
Orbit: 928 x 975 km, 82.8° (Epoch: 10 April)

Event Time Altitude Azimuth Distance (km) Brightness Sun altitude
Rises 19:39:00 0° 225° (SW) 3,574 ? -22.5°
Reaches altitude 10° 19:44:21 10° 266° (W) 2,630 ? -23.9°
Maximum altitude 19:45:08 10° 273° (W) 2,611 ? -24.1°
Drops below altitude 10° 19:45:56 10° 281° (W) 2,630 ? -24.3°
Sets 19:51:20 0° 321° (NW) 3,579 ? -25.6°
